Overview Statistics Trail Chart Weather Telemetry Raw packets
 

This is the latest recevied weather packets stored in our database for station/object XE3JAC-13. If no packets are shown the sender has not sent any weather packets the latest 10 day(s).

<< 6 7 8 9 10 11 12 >>
Time Temp. Humidity Pressure Rain* Wind** Luminosity Snow
1777433411 22.78° C 32% 1015 hPa 0 mm - - -
1777432510 22.78° C 32% 1014 hPa 0 mm - - -
1777431610 22.78° C 32% 1014 hPa 0 mm - - -
1777430709 22.78° C 32% 1014 hPa 0 mm - - -
1777429809 23.33° C 30% 1014 hPa 0 mm - - -
1777428909 23.89° C 28% 1013 hPa 0 mm - - -
1777428008 24.44° C 27% 1013 hPa 0 mm - - -
1777427108 24.44° C 27% 1013 hPa 0 mm - - -
1777426207 25° C 25% 1013 hPa 0 mm - - -
1777425307 25.56° C 24% 1012 hPa 0 mm - - -
1777424407 26.11° C 23% 1012 hPa 0 mm - - -
1777423506 28.33° C 25% 1012 hPa 0 mm - - -
1777422606 28.89° C 24% 1012 hPa 0 mm - - -
1777421705 29.44° C 25% 1010 hPa 0 mm - - -
1777420805 29.44° C 25% 1010 hPa 0 mm - - -
1777419905 29.44° C 25% 1010 hPa 0 mm - - -
1777419004 29.44° C 25% 1010 hPa 0 mm - - -
1777418103 29.44° C 24% 1009 hPa 0 mm - - -
1777417203 29.44° C 26% 1009 hPa 0 mm - - -
1777416303 29.44° C 26% 1009 hPa 0 mm - - -
1777415402 30° C 25% 1009 hPa 0 mm - - -
1777414502 29.44° C 28% 1009 hPa 0 mm - - -
1777413602 29.44° C 28% 1009 hPa 0 mm - - -
1777412701 29.44° C 27% 1009 hPa 0 mm - - -
1777411801 29.44° C 25% 1009 hPa 0 mm - - -

* Rain latest hour (hover to see other rain measurements)
** Current wind speed in m/s (hover to see current wind gust speed)